Nampa, ID

4:57 PM MST on December 14, 2019 (GMT -0700)
Nampa

Weather History for KMAN - November, 2019

Change the Weather History Date:

Wednesday, November 20, 2019

  Actual Average (WUND) Record (WUND)
Temperature  
Mean Temperature 46 °F -  
Max Temperature 57 °F - - (-1)
Min Temperature 35 °F - - (-1)
Degree Days  
Heating Degree Days 19    
Moisture  
Dew Point 32 °F    
Average Humidity 68    
Maximum Humidity 100    
Minimum Humidity 31    
Precipitation  
Precipitation 0.00 in - - ()
Sea Level Pressure  
Sea Level Pressure 29.81 in    
Wind  
Wind Speed 10 mph (WNW)    
Max Wind Speed 16 mph    
Max Gust Speed 22 mph    
Visibility 10 miles    
Events      
Averages and records for this station are not official NWS values.
T = Trace of Precipitation, MM = Missing Value Source: NWS Daily Summary

Daily Weather History Graph

Daily Weather History Graph

Search for Another Location

Airport or City:

Astronomy

Nov. 20, 2019 Rise Set
Actual Time 7:46 AM MST 5:16 PM MST
Civil Twilight 7:14 AM MST 5:48 PM MST
Nautical Twilight 6:39 AM MST 6:23 PM MST
Astronomical Twilight 6:05 AM MST 6:57 PM MST
Moon 12:20 AM MST (11/20) 2:29 PM MST (11/20)
Length of Visible Light 10h 33m
Length of Day
9h 30m
Last Quarter, 40% of the Moon is Illuminated
Nov 20
Last Quarter
Nov 26
New
Dec 3
First Quarter
Dec 11
Full
Dec 18
Last Quarter

Hourly Weather History & Observations

Time (MST) Temp. Windchill Dew Point Humidity Pressure Visibility Wind Dir Wind Speed Gust Speed Precip Events Conditions
12:15 AM 39.2 °F 33.0 °F 39.2 °F 100% 29.80 in 10.0 mi WNW 9.2 mph - N/A   Unknown
12:35 AM 39.2 °F 32.0 °F 39.2 °F 100% 29.80 in 10.0 mi WNW 11.5 mph - N/A   Unknown
1:15 AM 39.2 °F 33.0 °F 39.2 °F 100% 29.80 in 10.0 mi WNW 9.2 mph - N/A   Unknown
1:55 AM 39.2 °F 32.5 °F 39.2 °F 100% 29.79 in 10.0 mi WNW 10.4 mph - N/A   Unknown
2:15 AM 41.0 °F 33.9 °F 39.2 °F 93% 29.79 in 10.0 mi NW 12.7 mph - N/A   Unknown
2:35 AM 39.2 °F 32.0 °F 39.2 °F 100% 29.79 in 10.0 mi NW 11.5 mph - N/A   Unknown
2:55 AM 39.2 °F 32.5 °F 39.2 °F 100% 29.80 in 10.0 mi NW 10.4 mph - N/A   Unknown
3:15 AM 39.2 °F 32.0 °F 39.2 °F 100% 29.80 in 10.0 mi NW 11.5 mph - N/A   Unknown
3:35 AM 39.2 °F 31.6 °F 37.4 °F 93% 29.80 in 10.0 mi NW 12.7 mph - N/A   Unknown
3:55 AM 39.2 °F 32.0 °F 37.4 °F 93% 29.80 in 10.0 mi NW 11.5 mph - N/A   Unknown
4:15 AM 39.2 °F 31.2 °F 35.6 °F 87% 29.79 in 10.0 mi NW 13.8 mph - N/A   Unknown
4:35 AM 39.2 °F 32.0 °F 35.6 °F 87% 29.79 in 10.0 mi WNW 11.5 mph - N/A   Unknown
5:15 AM 39.2 °F 31.2 °F 35.6 °F 87% 29.79 in 10.0 mi NW 13.8 mph - N/A   Unknown
5:35 AM 39.2 °F 32.0 °F 35.6 °F 87% 29.79 in 10.0 mi NW 11.5 mph 18.4 mph N/A   Unknown
5:55 AM 39.2 °F 32.0 °F 33.8 °F 81% 29.80 in 10.0 mi WNW 11.5 mph 18.4 mph N/A   Unknown
6:15 AM 37.4 °F 29.3 °F 33.8 °F 87% 29.80 in 10.0 mi NW 12.7 mph - N/A   Unknown
6:55 AM 37.4 °F 30.3 °F 33.8 °F 87% 29.80 in 10.0 mi WNW 10.4 mph - N/A   Unknown
7:15 AM 37.4 °F 31.4 °F 33.8 °F 87% 29.81 in 10.0 mi WNW 8.1 mph - N/A   Unknown
7:35 AM 35.6 °F 28.0 °F 33.8 °F 93% 29.81 in 10.0 mi WNW 10.4 mph - N/A   Unknown
7:55 AM 35.6 °F 29.9 °F 33.8 °F 93% 29.82 in 10.0 mi West 6.9 mph - N/A   Clear
8:15 AM 35.6 °F 29.9 °F 33.8 °F 93% 29.83 in 10.0 mi WNW 6.9 mph - N/A   Clear
8:35 AM 35.6 °F 31.7 °F 33.8 °F 93% 29.83 in 10.0 mi West 4.6 mph - N/A   Clear
8:55 AM 37.4 °F 33.8 °F 33.8 °F 87% 29.84 in 10.0 mi West 4.6 mph - N/A   Clear
9:15 AM 37.4 °F 32.1 °F 33.8 °F 87% 29.84 in 10.0 mi West 6.9 mph - N/A   Clear
9:35 AM 39.2 °F 34.2 °F 33.8 °F 81% 29.84 in 10.0 mi WNW 6.9 mph - N/A   Clear
9:55 AM 41.0 °F 35.2 °F 35.6 °F 81% 29.84 in 10.0 mi WNW 9.2 mph - N/A   Clear
10:15 AM 42.8 °F 38.0 °F 35.6 °F 76% 29.84 in 10.0 mi NW 8.1 mph - N/A   Clear
10:55 AM 44.6 °F 40.7 °F 35.6 °F 71% 29.84 in 10.0 mi NW 6.9 mph - N/A   Clear
11:55 AM 50.0 °F - 33.8 °F 54% 29.82 in 10.0 mi NW 9.2 mph - N/A   Clear
12:15 PM 51.8 °F - 33.8 °F 50% 29.82 in 10.0 mi NW 10.4 mph - N/A   Partly Cloudy
12:35 PM 53.6 °F - 33.8 °F 47% 29.80 in 10.0 mi NNW 12.7 mph - N/A   Partly Cloudy
12:55 PM 53.6 °F - 33.8 °F 47% 29.80 in 10.0 mi NW 11.5 mph - N/A   Clear
1:15 PM 53.6 °F - 32.0 °F 44% 29.79 in 10.0 mi NNW 10.4 mph - N/A   Clear
1:35 PM 55.4 °F - 30.2 °F 38% 29.78 in 10.0 mi NW 11.5 mph - N/A   Clear
1:55 PM 57.2 °F - 28.4 °F 33% 29.78 in 10.0 mi NW 8.1 mph 16.1 mph N/A   Clear
2:15 PM 57.2 °F - 28.4 °F 33% 29.77 in 10.0 mi NW 10.4 mph - N/A   Clear
2:35 PM 57.2 °F - 26.6 °F 31% 29.77 in 10.0 mi WNW 12.7 mph - N/A   Clear
3:15 PM 57.2 °F - 26.6 °F 31% 29.77 in 10.0 mi NNW 15.0 mph - N/A   Clear
3:35 PM 57.2 °F - 26.6 °F 31% 29.77 in 10.0 mi NNW 16.1 mph - N/A   Clear
3:55 PM 57.2 °F - 26.6 °F 31% 29.76 in 10.0 mi NW 15.0 mph 21.9 mph N/A   Clear
4:15 PM 55.4 °F - 26.6 °F 33% 29.76 in 10.0 mi NNW 15.0 mph - N/A   Clear
4:55 PM 53.6 °F - 26.6 °F 35% 29.77 in 10.0 mi NNW 13.8 mph - N/A   Clear
5:15 PM 51.8 °F - 28.4 °F 41% 29.78 in 10.0 mi NW 12.7 mph - N/A   Clear
5:35 PM 50.0 °F - 28.4 °F 43% 29.78 in 10.0 mi NW 8.1 mph 13.8 mph N/A   Clear
5:55 PM 50.0 °F - 28.4 °F 43% 29.78 in 10.0 mi NW 10.4 mph - N/A   Unknown
6:15 PM 48.2 °F - 28.4 °F 46% 29.79 in 10.0 mi WNW 11.5 mph - N/A   Unknown
6:35 PM 48.2 °F - 28.4 °F 46% 29.79 in 10.0 mi WNW 10.4 mph - N/A   Unknown
7:15 PM 46.4 °F 41.9 °F 28.4 °F 50% 29.80 in 10.0 mi WNW 9.2 mph - N/A   Clear
7:35 PM 46.4 °F 41.1 °F 28.4 °F 50% 29.81 in 10.0 mi WNW 11.5 mph - N/A   Clear
7:55 PM 44.6 °F 39.2 °F 28.4 °F 53% 29.81 in 10.0 mi NW 10.4 mph - N/A   Clear
8:15 PM 44.6 °F 39.2 °F 28.4 °F 53% 29.82 in 10.0 mi NW 10.4 mph - N/A   Clear
8:55 PM 42.8 °F 37.5 °F 28.4 °F 57% 29.83 in 10.0 mi WNW 9.2 mph - N/A   Clear
9:15 PM 41.0 °F 35.2 °F 28.4 °F 61% 29.84 in 10.0 mi West 9.2 mph - N/A   Unknown
9:35 PM 41.0 °F 35.2 °F 28.4 °F 61% 29.85 in 10.0 mi West 9.2 mph - N/A   Unknown
9:55 PM 41.0 °F 35.8 °F 28.4 °F 61% 29.86 in 10.0 mi West 8.1 mph - N/A   Unknown
10:15 PM 41.0 °F 35.2 °F 28.4 °F 61% 29.87 in 10.0 mi West 9.2 mph - N/A   Unknown
10:35 PM 39.2 °F 34.2 °F 28.4 °F 65% 29.87 in 10.0 mi West 6.9 mph - N/A   Unknown
10:55 PM 39.2 °F - 28.4 °F 65% 29.88 in 10.0 mi Calm Calm - N/A   Unknown
11:15 PM 35.6 °F - 30.2 °F 81% 29.89 in 10.0 mi Calm Calm - N/A   Unknown
11:35 PM 37.4 °F 34.9 °F 30.2 °F 75% 29.89 in 10.0 mi West 3.5 mph - N/A   Unknown